Flag for Australia Weather past 2 weeks in Brisbane, Queensland, Australia

Now
77 °F

Overcast.


Feels Like: 78 °F
Forecast: 72 / 76 °F
Wind: 10 mph from North

Location: Brisbane Airport M. O

Current Time: Dec 27, 2014 at 1:49:05 AM

Latest Report: Dec 27, 2014 at 1:00 AM


Visibility: N/A

Pressure: 29.86 "Hg

Humidity: 89%

Dew point: 73 °F

Location of BrisbaneLocation

Historic Weather in Brisbane — Graph

°F

Brisbane temperature yesterday

Maximum temperature yesterday: 86 °F (at 1:00 PM)
Minimum temperature yesterday: 75 °F (at 2:00 AM)
Average temperature yesterday: 79 °F

Past Weeks' High & Low Weather Summary

 TemperatureHumidityPressure
High90 °F (Dec 17, 11:30 AM)100% (Dec 12, 2:00 AM)30.07 "Hg (Dec 12, 2:00 AM)
Low63 °F (Dec 15, 1:30 AM)46% (Dec 17, 12:00 PM)29.62 "Hg (Dec 17, 2:30 PM)
Average76 °F69%29.86 "Hg
* Reported Midnight between Dec 11 and Dec 12 — Midnight between Dec 26 and Dec 27, Brisbane, Weather by CustomWeather, © 2014

Note: Actual official high and low records may vary slightly from our data, if they occured in-between our weather recording intervals... More about our weather records

Advertising

Brisbane weather history for previous 24 hours

 ConditionsComfort  
Time TempWeatherWind HumidityBarometerVisibility
12:00 AM
Dec 27
79 °FDrizzle. Overcast.8 mph84%29.86 "HgN/A
11:30 PM
Dec 26
79 °FOvercast.7 mph84%29.89 "HgN/A
11:00 PM79 °FPassing clouds.9 mph84%29.89 "HgN/A
10:30 PM79 °FPassing clouds.9 mph84%29.89 "HgN/A
10:00 PM77 °FMostly cloudy.8 mph89%29.89 "HgN/A
9:00 PM77 °FPassing clouds.10 mph89%29.86 "HgN/A
8:30 PM79 °FPassing clouds.10 mph79%29.86 "HgN/A
8:00 PM79 °FPartly cloudy.13 mph79%29.86 "HgN/A
7:30 PM79 °FPassing clouds.14 mph79%29.86 "HgN/A
7:00 PM79 °FMostly cloudy.15 mph74%29.86 "HgN/A
6:30 PM79 °FPartly cloudy.14 mph79%29.83 "HgN/A
6:00 PM79 °FPartly cloudy.14 mph79%29.83 "HgN/A
5:30 PM81 °FPartly sunny.15 mph74%29.80 "HgN/A
5:00 PM81 °FPartly sunny.17 mph70%29.80 "HgN/A
4:00 PM81 °FPartly sunny.18 mph70%29.80 "HgN/A
3:30 PM84 °FScattered showers. Partly sunny.18 mph62%29.80 "HgN/A
3:00 PM84 °FScattered showers. Partly sunny.17 mph58%29.80 "HgN/A
2:30 PM82 °FScattered showers. Partly sunny.15 mph62%29.80 "HgN/A
2:00 PM82 °FScattered showers. Broken clouds.16 mph58%29.80 "HgN/A
1:30 PM84 °FScattered showers. Partly sunny.17 mph51%29.83 "HgN/A
1:00 PM86 °FScattered showers. Scattered clouds.18 mph55%29.83 "HgN/A
12:00 PM84 °FScattered clouds.17 mph62%29.83 "HgN/A
11:30 AM84 °FScattered clouds.18 mph62%29.83 "HgN/A
11:00 AM84 °FScattered clouds.17 mph62%29.86 "HgN/A
10:30 AM82 °FPartly sunny.14 mph66%29.86 "HgN/A
10:00 AM84 °FPartly sunny.13 mph62%29.86 "HgN/A
9:30 AM82 °FPartly sunny.10 mph66%29.86 "HgN/A
9:00 AM81 °FPartly sunny.13 mph70%29.86 "HgN/A
8:00 AM81 °FScattered clouds.12 mph66%29.86 "HgN/A
7:00 AM77 °FPartly sunny.12 mph74%29.89 "HgN/A
6:30 AM77 °FBroken clouds.10 mph74%29.86 "HgN/A
6:00 AM77 °FPartly sunny.9 mph74%29.86 "HgN/A
5:30 AM75 °FBroken clouds.8 mph78%29.86 "HgN/A
5:00 AM75 °FScattered clouds.7 mph78%29.86 "HgN/A
4:30 AM75 °FPartly sunny.7 mph78%29.86 "HgN/A
4:00 AM75 °FPartly sunny.8 mph78%29.83 "HgN/A
3:30 AM75 °FPassing clouds.8 mph78%29.83 "HgN/A
3:00 AM75 °FPassing clouds.7 mph78%29.83 "HgN/A
2:30 AM75 °FPassing clouds.8 mph78%29.83 "HgN/A
2:00 AM75 °FPassing clouds.9 mph78%29.83 "HgN/A
1:00 AM77 °FPassing clouds.7 mph79%29.83 "HgN/A
Weather by CustomWeather, © 2014

See weather overviewHow to use our weather pages